Location: Flotzheim
(48.8375°N, 10.8136°E)
Time: 16:59:14
(UTC+00:00)

SJ 16-02 - Pass Details

Date: 23 January 2021
Orbit: 606 x 616 km, 75.0° (Epoch: 01 March)

Event Time Altitude Azimuth Distance (km) Brightness Sun altitude
Rises 17:54:56 0° 212° (SSW) 2,865 5.4 -18.6°
Reaches altitude 10° 17:57:12 10° 217° (SW) 1,964 4.5 -19.0°
Maximum altitude 18:01:30 54° 295° (WNW) 745 2.0 -19.7°
Enters shadow 18:05:13 14° 12° (NNE) 1,738 3.5 -20.3°
